TimeEDT,TemperatureF,Dew PointF,Humidity,Sea Level PressureIn,VisibilityMPH,Wind Direction,Wind SpeedMPH,Gust SpeedMPH,PrecipitationIn,Events,Conditions,WindDirDegrees,DateUTC
12:52 AM,57.0,55.0,93,29.91,10.0,Calm,Calm,-,N/A,,Mostly Cloudy,0,2013-09-05 04:52:00
1:52 AM,55.9,54.0,93,29.90,10.0,Calm,Calm,-,N/A,,Partly Cloudy,0,2013-09-05 05:52:00
2:52 AM,55.9,55.0,97,29.90,10.0,Calm,Calm,-,N/A,,Overcast,0,2013-09-05 06:52:00
3:52 AM,55.9,54.0,93,29.88,10.0,Calm,Calm,-,N/A,,Mostly Cloudy,0,2013-09-05 07:52:00
4:52 AM,55.9,54.0,93,29.90,10.0,Calm,Calm,-,N/A,,Overcast,0,2013-09-05 08:52:00
5:52 AM,55.9,55.0,97,29.90,10.0,Calm,Calm,-,N/A,,Scattered Clouds,0,2013-09-05 09:52:00
6:52 AM,57.0,55.0,93,29.92,10.0,Calm,Calm,-,N/A,,Overcast,0,2013-09-05 10:52:00
7:52 AM,57.9,55.9,93,29.93,10.0,Calm,Calm,-,N/A,,Overcast,0,2013-09-05 11:52:00
8:52 AM,61.0,59.0,93,29.96,10.0,NW,4.6,-,N/A,,Overcast,320,2013-09-05 12:52:00
9:06 AM,62.6,57.2,82,29.97,10.0,North,6.9,-,N/A,,Overcast,360,2013-09-05 13:06:00
9:33 AM,64.4,53.6,68,29.97,10.0,North,13.8,21.9,N/A,,Mostly Cloudy,10,2013-09-05 13:33:00
9:52 AM,64.0,54.0,70,29.97,10.0,Variable,5.8,-,N/A,,Partly Cloudy,0,2013-09-05 13:52:00
10:52 AM,64.9,53.1,65,29.99,10.0,North,-9999.0,-,N/A,,Partly Cloudy,0,2013-09-05 14:52:00
11:52 AM,66.0,50.0,56,29.99,10.0,North,-9999.0,-,N/A,,Clear,0,2013-09-05 15:52:00
12:52 PM,69.1,41.0,36,30.00,10.0,North,-9999.0,-,N/A,,Partly Cloudy,0,2013-09-05 16:52:00
1:52 PM,69.1,39.0,33,30.00,10.0,North,-9999.0,-,N/A,,Clear,0,2013-09-05 17:52:00
2:52 PM,69.1,37.9,32,30.01,10.0,NNW,6.9,-,N/A,,Scattered Clouds,340,2013-09-05 18:52:00
3:52 PM,70.0,36.0,29,30.01,10.0,NNE,9.2,16.1,N/A,,Clear,20,2013-09-05 19:52:00
4:52 PM,68.0,37.0,32,30.03,10.0,NNW,9.2,-,N/A,,Mostly Cloudy,340,2013-09-05 20:52:00
5:52 PM,66.0,39.9,38,30.05,10.0,North,6.9,-,N/A,,Mostly Cloudy,350,2013-09-05 21:52:00
6:52 PM,61.0,45.0,56,30.06,10.0,Calm,Calm,-,N/A,,Scattered Clouds,0,2013-09-05 22:52:00
7:52 PM,55.0,48.9,80,30.09,10.0,Calm,Calm,-,N/A,,Clear,0,2013-09-05 23:52:00
8:52 PM,51.1,46.9,86,30.12,10.0,Calm,Calm,-,N/A,,Clear,0,2013-09-06 00:52:00
9:52 PM,48.9,46.9,93,30.14,10.0,Calm,Calm,-,N/A,,Clear,0,2013-09-06 01:52:00
10:52 PM,48.9,46.0,90,30.16,10.0,Calm,Calm,-,N/A,,Clear,0,2013-09-06 02:52:00
11:52 PM,46.0,45.0,96,30.18,10.0,Calm,Calm,-,N/A,,Clear,0,2013-09-06 03:52:00